Previsão horária em Ceglarze

Hoje, 25 Julho, Domingo

Tempo Temperatura Precipitação Vento Pressão Humidade
00:00 +19°C° 0 mm 3 m/s 738 mmHg 72%
01:00 +19°C° 0 mm 2 m/s 738 mmHg 73%
02:00 +19°C° 0 mm 2 m/s 738 mmHg 73%
03:00 +19°C° 0 mm 2 m/s 738 mmHg 72%
04:00 +19°C° 0 mm 2 m/s 737 mmHg 72%
05:00 +21°C° 0 mm 2 m/s 738 mmHg 65%
06:00 +24°C° 0 mm 3 m/s 738 mmHg 59%
07:00 +25°C° 0 mm 3 m/s 738 mmHg 56%
08:00 +26°C° 0 mm 3 m/s 738 mmHg 51%
09:00 +27°C° 0 mm 3 m/s 738 mmHg 47%
10:00 +28°C° 0 mm 3 m/s 738 mmHg 43%
11:00 +27°C° 0 mm 3 m/s 738 mmHg 46%
12:00 +26°C° 0 mm 4 m/s 738 mmHg 49%
13:00 +26°C° 0 mm 5 m/s 738 mmHg 52%
14:00 +25°C° 0.1 mm 4 m/s 738 mmHg 58%
15:00 +22°C° 0.1 mm 3 m/s 738 mmHg 65%
16:00 +21°C° 0.1 mm 2 m/s 738 mmHg 71%
17:00 +21°C° 0 mm 3 m/s 738 mmHg 71%
18:00 +21°C° 0 mm 3 m/s 738 mmHg 71%
19:00 +21°C° 0 mm 4 m/s 737 mmHg 70%
20:00 +20°C° 0 mm 4 m/s 737 mmHg 73%
21:00 +19°C° 0 mm 3 m/s 737 mmHg 76%
22:00 +19°C° 0 mm 3 m/s 737 mmHg 79%
23:00 +18°C° 0 mm 3 m/s 737 mmHg 79%

Amanhã, 26 Julho, Segunda-feira

Tempo Temperatura Precipitação Vento Pressão Humidade
00:00 +18°C° 0 mm 3 m/s 736 mmHg 79%
01:00 +18°C° 0 mm 2 m/s 736 mmHg 79%
02:00 +18°C° 0 mm 2 m/s 736 mmHg 82%
03:00 +17°C° 0 mm 2 m/s 736 mmHg 84%
04:00 +18°C° 0 mm 1 m/s 736 mmHg 87%
05:00 +18°C° 0.1 mm 2 m/s 736 mmHg 86%
06:00 +19°C° 0.1 mm 2 m/s 736 mmHg 84%
07:00 +21°C° 0.1 mm 3 m/s 737 mmHg 82%
08:00 +22°C° 0 mm 3 m/s 737 mmHg 76%
09:00 +24°C° 0 mm 3 m/s 737 mmHg 70%
10:00 +26°C° 0 mm 3 m/s 737 mmHg 64%
11:00 +25°C° 0.3 mm 3 m/s 737 mmHg 66%
12:00 +25°C° 0.3 mm 3 m/s 737 mmHg 68%
13:00 +25°C° 0.3 mm 3 m/s 737 mmHg 70%
14:00 +25°C° 0.1 mm 3 m/s 737 mmHg 68%
15:00 +26°C° 0.1 mm 2 m/s 737 mmHg 65%
16:00 +26°C° 0.1 mm 1 m/s 737 mmHg 63%
17:00 +26°C° 0 mm 1 m/s 737 mmHg 65%
18:00 +25°C° 0 mm 1 m/s 737 mmHg 67%
19:00 +25°C° 0 mm 1 m/s 737 mmHg 69%
20:00 +24°C° 0 mm 1 m/s 737 mmHg 71%
21:00 +23°C° 0 mm 1 m/s 737 mmHg 73%
22:00 +21°C° 0 mm 2 m/s 737 mmHg 75%
23:00 +21°C° 0 mm 2 m/s 737 mmHg 77%

Depois de amanhã, 27 Julho, Terça-feira

Tempo Temperatura Precipitação Vento Pressão Humidade
00:00 +21°C° 0 mm 2 m/s 737 mmHg 78%
01:00 +20°C° 0 mm 2 m/s 737 mmHg 80%
02:00 +20°C° 0.3 mm 2 m/s 737 mmHg 83%
03:00 +20°C° 0.3 mm 2 m/s 737 mmHg 85%
04:00 +19°C° 0.3 mm 2 m/s 737 mmHg 87%
05:00 +20°C° 0 mm 2 m/s 738 mmHg 85%
06:00 +20°C° 0 mm 3 m/s 738 mmHg 83%
07:00 +20°C° 0 mm 3 m/s 738 mmHg 81%
08:00 +22°C° 0 mm 3 m/s 738 mmHg 74%
09:00 +25°C° 0 mm 4 m/s 739 mmHg 67%
10:00 +26°C° 0 mm 4 m/s 739 mmHg 60%
11:00 +27°C° 0.1 mm 4 m/s 739 mmHg 58%
12:00 +28°C° 0.1 mm 3 m/s 739 mmHg 55%
13:00 +29°C° 0.1 mm 3 m/s 739 mmHg 52%
14:00 +29°C° 0.1 mm 3 m/s 739 mmHg 51%
15:00 +29°C° 0.1 mm 2 m/s 739 mmHg 50%
16:00 +29°C° 0.1 mm 2 m/s 739 mmHg 48%
17:00 +28°C° 0 mm 2 m/s 739 mmHg 52%
18:00 +27°C° 0 mm 1 m/s 739 mmHg 55%
19:00 +26°C° 0 mm 1 m/s 738 mmHg 59%
20:00 +25°C° 0 mm 1 m/s 739 mmHg 62%
21:00 +24°C° 0 mm 2 m/s 739 mmHg 64%
22:00 +23°C° 0 mm 2 m/s 739 mmHg 67%
23:00 +23°C° 0 mm 2 m/s 739 mmHg 68%

28 Julho, Quarta-feira

Tempo Temperatura Precipitação Vento Pressão Humidade
00:00 +22°C° 0 mm 1 m/s 739 mmHg 69%
01:00 +22°C° 0 mm 1 m/s 739 mmHg 70%
02:00 +22°C° 0 mm 1 m/s 739 mmHg 72%
03:00 +21°C° 0 mm 1 m/s 739 mmHg 74%
04:00 +21°C° 0 mm 1 m/s 739 mmHg 76%
05:00 +21°C° 0 mm 2 m/s 739 mmHg 72%
06:00 +23°C° 0 mm 2 m/s 739 mmHg 68%
07:00 +25°C° 0 mm 2 m/s 739 mmHg 64%
08:00 +26°C° 0 mm 2 m/s 739 mmHg 58%
09:00 +28°C° 0 mm 1 m/s 739 mmHg 53%
10:00 +29°C° 0 mm 1 m/s 739 mmHg 47%
11:00 +30°C° 0 mm 1 m/s 739 mmHg 44%
12:00 +31°C° 0 mm 1 m/s 739 mmHg 41%
13:00 +31°C° 0 mm 1 m/s 738 mmHg 37%
14:00 +30°C° 0 mm 2 m/s 738 mmHg 43%
15:00 +28°C° 0 mm 3 m/s 738 mmHg 48%
16:00 +27°C° 0 mm 4 m/s 738 mmHg 53%
17:00 +25°C° 0.1 mm 4 m/s 738 mmHg 60%
18:00 +23°C° 0.1 mm 4 m/s 738 mmHg 66%
19:00 +21°C° 0.1 mm 5 m/s 739 mmHg 72%
20:00 +20°C° 0.5 mm 4 m/s 739 mmHg 78%
21:00 +20°C° 0.5 mm 3 m/s 739 mmHg 84%
22:00 +19°C° 0.5 mm 2 m/s 740 mmHg 89%
23:00 +19°C° 0.4 mm 2 m/s 740 mmHg 90%

29 Julho, Quinta-feira

Tempo Temperatura Precipitação Vento Pressão Humidade
00:00 +18°C° 0.4 mm 2 m/s 740 mmHg 91%
01:00 +18°C° 0.4 mm 2 m/s 740 mmHg 93%
02:00 +18°C° 0.1 mm 2 m/s 740 mmHg 93%
03:00 +18°C° 0.1 mm 2 m/s 740 mmHg 93%
04:00 +17°C° 0.1 mm 2 m/s 740 mmHg 94%
05:00 +18°C° 0 mm 2 m/s 740 mmHg 89%
06:00 +19°C° 0 mm 2 m/s 740 mmHg 85%
07:00 +19°C° 0 mm 2 m/s 741 mmHg 80%
08:00 +21°C° 0 mm 2 m/s 741 mmHg 73%
09:00 +23°C° 0 mm 2 m/s 741 mmHg 65%
10:00 +25°C° 0 mm 2 m/s 741 mmHg 58%
11:00 +26°C° 0 mm 2 m/s 741 mmHg 53%
12:00 +27°C° 0 mm 2 m/s 740 mmHg 49%
13:00 +28°C° 0 mm 2 m/s 740 mmHg 44%
14:00 +29°C° 0 mm 2 m/s 740 mmHg 43%
15:00 +29°C° 0 mm 1 m/s 739 mmHg 41%
16:00 +29°C° 0 mm 1 m/s 739 mmHg 39%
17:00 +28°C° 0 mm 1 m/s 739 mmHg 44%
18:00 +27°C° 0 mm 1 m/s 739 mmHg 49%
19:00 +26°C° 0 mm 1 m/s 738 mmHg 53%
20:00 +25°C° 0 mm 1 m/s 738 mmHg 56%
21:00 +23°C° 0 mm 2 m/s 738 mmHg 59%
22:00 +21°C° 0 mm 2 m/s 738 mmHg 62%
23:00 +21°C° 0 mm 2 m/s 738 mmHg 65%

30 Julho, Sexta-feira

Tempo Temperatura Precipitação Vento Pressão Humidade
00:00 +21°C° 0 mm 3 m/s 738 mmHg 69%
01:00 +20°C° 0 mm 3 m/s 737 mmHg 72%
02:00 +20°C° 0 mm 3 m/s 737 mmHg 74%
03:00 +20°C° 0 mm 3 m/s 737 mmHg 75%
04:00 +20°C° 0 mm 3 m/s 737 mmHg 77%
05:00 +21°C° 0.1 mm 3 m/s 737 mmHg 74%
06:00 +22°C° 0.1 mm 3 m/s 737 mmHg 71%
07:00 +24°C° 0.1 mm 3 m/s 737 mmHg 68%
08:00 +26°C° 0 mm 4 m/s 737 mmHg 59%
09:00 +28°C° 0 mm 4 m/s 736 mmHg 50%
10:00 +30°C° 0 mm 4 m/s 736 mmHg 41%
11:00 +32°C° 0 mm 4 m/s 736 mmHg 41%
12:00 +32°C° 0 mm 4 m/s 736 mmHg 41%
13:00 +32°C° 0 mm 4 m/s 735 mmHg 41%
14:00 +32°C° 0 mm 4 m/s 735 mmHg 41%
15:00 +33°C° 0 mm 4 m/s 735 mmHg 41%
16:00 +33°C° 0 mm 4 m/s 735 mmHg 41%
17:00 +29°C° 0.8 mm 4 m/s 735 mmHg 53%
18:00 +27°C° 0.8 mm 3 m/s 735 mmHg 66%
19:00 +24°C° 0.8 mm 3 m/s 735 mmHg 78%
20:00 +23°C° 0.2 mm 2 m/s 736 mmHg 81%
21:00 +23°C° 0.2 mm 2 m/s 736 mmHg 84%
22:00 +22°C° 0.2 mm 1 m/s 736 mmHg 86%
23:00 +22°C° 0.2 mm 1 m/s 736 mmHg 87%
Mostrar mais

Necessitamos do seu Consentimento

A Meteoprog e os seus Fornecedores de Serviços podem armazenar e aceder a dados pessoais como cookies, identificadores do dispositivo ou outras tecnologias semelhantes existentes no seu dispositivo e processar estes dados para personalizar conteúdos e anúncios, assim como funcionalidades nas redes sociais e análise de tráfego.

  • Armazenar e/ou aceder a informações no seu dispositivo

    Os cookies, identificadores do dispositivo ou outras informações podem ser armazenados ou acedidos no seu dispositivo, para os fins acima indicados.

  • Anúncios e conteúdos personalizados, medição de anúncios e conteúdos, dados sobre o público-alvo e desenvolvimento de produtos

    Os anúncios e os conteúdos podem ser personalizados com base num perfil. Podem ser adicionados dados adicionais para uma maior personalização dos anúncios e dos conteúdos. A eficácia dos anúncios e dos conteúdos pode ser medida. Podem ser obtidas informações sobre o público que visualizou os anúncios e os conteúdos. Estes dados podem ser usados para desenvolver ou melhorar sistemas, softwares ou a experiência do utilizador.

Ao clicar em "Eu concordo”, permitirá o uso de cookies, identificadores do dispositivo e web beacons mencionados ou outras tecnologias semelhantes. As configurações do navegador do seu dispositivo podem ser alteradas.

Para certos fins, podem ser invocados interesses legítimos ao invés de consentimento. Pode ler mais informação sobre este assunto na nossa Política de Privacidade e Cookies.